Terug naar catalogus

SL-8 DEB

ActiefLEO
NORAD 10526·DEBRIS·🇷🇺 Russia

Gelanceerd Dec 13, 1977 vanaf Plesetsk Cosmodrome

Loading…

Volgende Passages (komende 24 uur)

TLE

VersSource: Space-Track

Epoch: Sep 14, 2026, 13:57 UTC

1 10526U 77116D   26257.58133556  .00000064  00000-0  14168-3 0  9997
2 10526  65.8328 198.0667 0040175 263.3891 270.1236 13.79045952449030

Volg SL-8 DEB in realtime met AllMySat

Download on the App Store